Tracking 18793 objects as of 24-September-2017
HD Live streaming from Space Station
objects crossing your sky now

SL-16 DEB

Track SL-16 DEB now!
10-day predictions


NORAD ID: 20628
Int'l Code: 1990-046E
Perigee: 846.8 km
Apogee: 1,154.2 km
Inclination: 71.0 °
Period: 105.0 minutes
Semi major axis: 7371 km
RCS: 0.0854 m2 (small)
Launch date: May 22, 1990
Source: Commonwealth of Independent States (former USSR) (CIS)
Launch site: TYURATAM MISSILE AND SPACE COMPLEX (TTMTR)

Note: This is SATELLITE DEBRIS
aabbcc
Your satellite tracking list
Your tracking list is empty





NASA's NSSDC Master Catalog

Two Line Element Set (TLE):
1 20628U 90046E   17266.76802349 +.00000008 +00000-0 +47373-4 0  9994
2 20628 070.9765 297.7949 0208537 037.3063 324.2312 13.71739285368165
Source of the keplerian elements: AFSPC